Weather History for Brookings, SD

Change the Weather History Date:

Thursday, November 8, 2012

  Actual Average Record
Temperature  
Mean Temperature 44 °F -  
Max Temperature 55 °F 42 °F 77 °F (1999)
Min Temperature 33 °F 24 °F 5 °F (2003)
Degree Days  
Heating Degree Days 21    
Moisture  
Dew Point 33 °F    
Average Humidity 74    
Maximum Humidity 100    
Minimum Humidity 47    
Precipitation  
Precipitation 0.00 in - - ()
Sea Level Pressure  
Sea Level Pressure 29.92 in    
Wind  
Wind Speed 11 mph (ENE)    
Max Wind Speed 20 mph    
Max Gust Speed 24 mph    
Visibility 10 miles    
Events      
Averages and records for this station are not official NWS values.
T = Trace of Precipitation, MM = Missing Value Source: NWS Daily Summary

Daily Weather History Graph

Daily Weather History Graph

Search for Another Location

Airport:

Trip Planner

Search our weather history database for the weather conditions in past years. The results will help you decide how hot, cold, wet, or windy it might be!

Date:

Astronomy

Nov. 08, 2012 Rise Set
Actual Time 7:14 AM CST 5:07 PM CST
Civil Twilight 6:43 AM CST 5:37 PM CST
Nautical Twilight 6:08 AM CST 6:12 PM CST
Astronomical Twilight 5:34 AM CST 6:46 PM CST
Moon 12:58 AM CST (11/8) 2:00 PM CST (11/8)
Length of Visible Light 10h 54m
Length of Day
9h 52m
Waning Crescent, 32% of the Moon is Illuminated
Nov 8
Waning Crescent
Nov 13
New
Nov 20
First Quarter
Nov 28
Full
Dec 6
Last Quarter

Hourly Weather History & Observations

Time (CST) Temp. Windchill Dew Point Humidity Pressure Visibility Wind Dir Wind Speed Gust Speed Precip Events Conditions
12:15 AM 37.4 °F 29.3 °F 30.2 °F 75% 29.90 in 10.0 mi SSE 12.7 mph - N/A   Clear
12:35 AM 37.4 °F 29.3 °F 30.2 °F 75% 29.90 in 10.0 mi SSE 12.7 mph - N/A   Clear
12:55 AM 37.4 °F 29.3 °F 30.2 °F 75% 29.88 in 10.0 mi SSE 12.7 mph 17.3 mph N/A   Clear
1:15 AM 37.4 °F 28.9 °F 30.2 °F 75% 29.87 in 10.0 mi SSE 13.8 mph - N/A   Clear
1:35 AM 37.4 °F 28.2 °F 30.2 °F 75% 29.86 in 10.0 mi SSE 16.1 mph 20.7 mph N/A   Clear
1:55 AM 37.4 °F 28.5 °F 30.2 °F 75% 29.85 in 10.0 mi SSE 15.0 mph 23.0 mph N/A   Clear
2:15 AM 37.4 °F 28.5 °F 30.2 °F 75% 29.86 in 10.0 mi SSE 15.0 mph 18.4 mph N/A   Clear
2:35 AM 37.4 °F 28.2 °F 30.2 °F 75% 29.85 in 10.0 mi SSE 16.1 mph 20.7 mph N/A   Clear
2:55 AM 37.4 °F 28.9 °F 30.2 °F 75% 29.85 in 10.0 mi SSE 13.8 mph - N/A   Clear
3:15 AM 37.4 °F 29.8 °F 30.2 °F 75% 29.84 in 10.0 mi SSE 11.5 mph 18.4 mph N/A   Clear
3:35 AM 37.4 °F 28.9 °F 30.2 °F 75% 29.83 in 10.0 mi SSE 13.8 mph 19.6 mph N/A   Clear
3:55 AM 37.4 °F 29.8 °F 30.2 °F 75% 29.82 in 10.0 mi SSE 11.5 mph - N/A   Clear
4:15 AM 37.4 °F 30.8 °F 30.2 °F 75% 29.83 in 10.0 mi SSE 9.2 mph - N/A   Clear
4:35 AM 37.4 °F 29.8 °F 30.2 °F 75% 29.82 in 10.0 mi SSE 11.5 mph - N/A   Clear
4:55 AM 37.4 °F 29.3 °F 30.2 °F 75% 29.83 in 10.0 mi SSE 12.7 mph - N/A   Clear
5:15 AM 37.4 °F 32.1 °F 30.2 °F 75% 29.84 in 10.0 mi SSE 6.9 mph - N/A   Clear
5:35 AM 35.6 °F 29.9 °F 28.4 °F 75% 29.84 in 10.0 mi SSE 6.9 mph - N/A   Clear
5:55 AM 35.6 °F 30.7 °F 30.2 °F 81% 29.84 in 10.0 mi SSE 5.8 mph - N/A   Clear
6:15 AM 33.8 °F 28.6 °F 28.4 °F 81% 29.84 in 10.0 mi SE 5.8 mph - N/A   Clear
6:35 AM 33.8 °F 29.6 °F 28.4 °F 81% 29.85 in 10.0 mi ESE 4.6 mph - N/A   Clear
6:55 AM 33.8 °F 28.6 °F 28.4 °F 81% 29.85 in 10.0 mi ESE 5.8 mph - N/A   Clear
7:15 AM 33.8 °F 27.7 °F 28.4 °F 81% 29.85 in 10.0 mi ESE 6.9 mph - N/A   Clear
7:35 AM 33.8 °F 28.6 °F 33.8 °F 100% 29.86 in 10.0 mi SE 5.8 mph - N/A   Clear
7:55 AM 33.8 °F 29.6 °F 30.2 °F 87% 29.87 in 10.0 mi East 4.6 mph - N/A   Clear
8:15 AM 35.6 °F 31.7 °F 30.2 °F 81% 29.88 in 10.0 mi ESE 4.6 mph - N/A   Clear
8:35 AM 37.4 °F 33.8 °F 30.2 °F 75% 29.89 in 10.0 mi ESE 4.6 mph - N/A   Clear
8:55 AM 39.2 °F 37.0 °F 30.2 °F 70% 29.90 in 10.0 mi South 3.5 mph - N/A   Clear
9:15 AM 41.0 °F 38.0 °F 30.2 °F 65% 29.91 in 10.0 mi South 4.6 mph - N/A   Clear
9:35 AM 42.8 °F 41.1 °F 30.2 °F 61% 29.91 in 10.0 mi South 3.5 mph - N/A   Clear
9:55 AM 42.8 °F 41.1 °F 30.2 °F 61% 29.91 in 10.0 mi South 3.5 mph - N/A   Clear
10:15 AM 46.4 °F - 32.0 °F 57% 29.92 in 10.0 mi Calm Calm - N/A   Clear
10:35 AM 44.6 °F - 32.0 °F 61% 29.92 in 10.0 mi Calm Calm - N/A   Clear
10:55 AM 46.4 °F - 32.0 °F 57% 29.92 in 10.0 mi Calm Calm - N/A   Clear
11:15 AM 48.2 °F - 33.8 °F 58% 29.93 in 10.0 mi NW 3.5 mph - N/A   Clear
11:35 AM 48.2 °F - 32.0 °F 54% 29.92 in 10.0 mi North 6.9 mph - N/A   Clear
11:55 AM 50.0 °F - 33.8 °F 54% 29.92 in 10.0 mi North 10.4 mph - N/A   Clear
12:15 PM 51.8 °F - 33.8 °F 50% 29.92 in 10.0 mi North 11.5 mph - N/A   Clear
12:55 PM 51.8 °F - 33.8 °F 50% 29.92 in 10.0 mi North 8.1 mph - N/A   Clear
1:15 PM 53.6 °F - 33.8 °F 47% 29.91 in 10.0 mi NNE 9.2 mph - N/A   Clear
1:35 PM 55.4 °F - 35.6 °F 47% 29.91 in 10.0 mi North 15.0 mph 18.4 mph N/A   Clear
1:55 PM 55.4 °F - 37.4 °F 51% 29.92 in 10.0 mi North 13.8 mph 20.7 mph N/A   Clear
2:15 PM 55.4 °F - 37.4 °F 51% 29.93 in 10.0 mi North 15.0 mph 21.9 mph N/A   Clear
2:35 PM 53.6 °F - 37.4 °F 54% 29.93 in 10.0 mi North 16.1 mph 20.7 mph N/A   Clear
2:55 PM 51.8 °F - 37.4 °F 58% 29.94 in 10.0 mi North 18.4 mph 23.0 mph N/A   Clear
3:15 PM 51.8 °F - 37.4 °F 58% 29.94 in 10.0 mi North 17.3 mph - N/A   Clear
3:35 PM 51.8 °F - 39.2 °F 62% 29.95 in 10.0 mi North 15.0 mph - N/A   Clear
3:55 PM 48.2 °F - 37.4 °F 66% 29.95 in 10.0 mi North 17.3 mph 24.2 mph N/A   Clear
4:15 PM 46.4 °F 39.8 °F 37.4 °F 71% 29.96 in 10.0 mi North 16.1 mph 19.6 mph N/A   Clear
4:35 PM 44.6 °F 37.4 °F 35.6 °F 71% 29.97 in 10.0 mi North 16.1 mph - N/A   Clear
4:55 PM 42.8 °F 34.3 °F 35.6 °F 76% 29.98 in 10.0 mi North 19.6 mph 24.2 mph N/A   Scattered Clouds
5:15 PM 41.0 °F 33.5 °F 35.6 °F 81% 29.99 in 10.0 mi North 13.8 mph 21.9 mph N/A   Overcast
5:35 PM 39.2 °F 30.5 °F 35.6 °F 87% 30.00 in 10.0 mi North 16.1 mph - N/A   Overcast
5:55 PM 39.2 °F 32.0 °F 35.6 °F 87% 30.00 in 10.0 mi NNE 11.5 mph 20.7 mph N/A   Overcast
6:15 PM 39.2 °F 31.6 °F 35.6 °F 87% 30.00 in 8.0 mi North 12.7 mph 21.9 mph N/A   Overcast
6:35 PM 39.2 °F 31.2 °F 35.6 °F 87% 30.00 in 8.0 mi NNE 13.8 mph - N/A   Overcast
6:55 PM 39.2 °F 31.2 °F 35.6 °F 87% 30.01 in 8.0 mi North 13.8 mph 19.6 mph N/A   Overcast
7:15 PM 37.4 °F 29.8 °F 33.8 °F 87% 30.02 in 5.0 mi North 11.5 mph - N/A   Overcast
7:35 PM 39.2 °F 32.0 °F 33.8 °F 81% 30.01 in 8.0 mi NNE 11.5 mph - N/A   Overcast
7:55 PM 39.2 °F 31.2 °F 33.8 °F 81% 30.01 in 10.0 mi NNE 13.8 mph 17.3 mph N/A   Overcast
8:15 PM 39.2 °F 32.5 °F 33.8 °F 81% 30.01 in 10.0 mi North 10.4 mph - N/A   Overcast
8:35 PM 39.2 °F 31.2 °F 33.8 °F 81% 30.01 in 10.0 mi NNE 13.8 mph - N/A   Overcast
8:55 PM 39.2 °F 32.5 °F 33.8 °F 81% 30.02 in 10.0 mi NNE 10.4 mph - N/A   Overcast
9:15 PM 39.2 °F 32.5 °F 33.8 °F 81% 30.01 in 10.0 mi North 10.4 mph - N/A   Overcast
9:35 PM 37.4 °F 29.8 °F 33.8 °F 87% 30.02 in 10.0 mi NNE 11.5 mph 18.4 mph N/A   Overcast
9:55 PM 37.4 °F 28.5 °F 33.8 °F 87% 30.01 in 10.0 mi NNE 15.0 mph - N/A   Overcast
10:15 PM 37.4 °F 28.9 °F 33.8 °F 87% 30.01 in 10.0 mi NNE 13.8 mph - N/A   Overcast
10:35 PM 37.4 °F 30.3 °F 33.8 °F 87% 30.01 in 10.0 mi NNE 10.4 mph - N/A   Overcast
10:55 PM 37.4 °F 30.8 °F 35.6 °F 93% 30.01 in 10.0 mi NNE 9.2 mph - N/A   Overcast
11:15 PM 37.4 °F 29.3 °F 35.6 °F 93% 30.00 in 10.0 mi NNE 12.7 mph - N/A   Overcast
11:35 PM 37.4 °F 29.8 °F 35.6 °F 93% 30.00 in 10.0 mi NNE 11.5 mph - N/A   Overcast
11:55 PM 37.4 °F 30.8 °F 35.6 °F 93% 30.01 in 10.0 mi NNE 9.2 mph - N/A   Overcast